Estación Meteorológica Peña el Pijo (Robertgarden) [ 09/30/20 09:55:16 CEST ]

Fecha Hora Presion(HPa) Temp (°C) Humedad % Rocio (°C) Viento ( m/s) Direccion Lluvia 1Hora(mm) Lluvia 24H(mm) LLuvia Total(mm)
2020-May-02 01:09:08 1013.500 - - - - W     39.88
2020-May-02 02:09:37 1013.800 - - - - W     39.88
2020-May-02 03:09:24 1013.300 - - - - W     39.88
2020-May-02 04:09:32 1012.700 - - - - W     39.88
2020-May-02 05:09:19 1012.500 - - - - W     39.88
2020-May-02 06:09:24 1012.300 - - - - W     39.88
2020-May-02 07:10:16 1012.200 - - - - W     39.88
2020-May-02 08:10:03 1012.700 - - - - W     39.88
2020-May-02 09:09:28 1013.300 - - - - W     39.88
2020-May-02 10:09:21 1013.200 - - - - W     39.88
2020-May-02 11:09:13 1013.300 - - - - W     39.88
2020-May-02 12:09:16 1012.800 - - - - W     39.88
2020-May-02 13:09:18 1012.700 - - - - W     39.88
2020-May-02 14:09:24 1012.300 - - - - W     39.88
2020-May-02 15:09:24 1011.900 - - - - W     39.88
2020-May-02 16:09:07 1011.700 - - - - W     39.88
2020-May-02 17:09:30 1011.400 - - - - W     39.88
2020-May-02 18:09:01 1011.100 - - - - W     39.88
2020-May-02 19:09:25 1011.400 - - - - W     39.88
2020-May-02 20:09:08 1011.400 - - - - W     39.88
2020-May-02 21:08:47 1011.800 - - - - W     39.88
2020-May-02 22:08:53 1012.700 - - - - W     39.88
2020-May-02 23:09:20 1013.000 - - - - W     39.88

Temperatura Máxima:    Temperatura Mínima:
Presión Máxima:1013.800 Hpa    Presión Mínima:1011.100 Hpa


Volver